JAL687 RJCC-RJAA

Flight info

Callsign JAL687
Flight time N/A
Altitude 35000
Route REZOT2 DALBI Y120 RURUD Y125 JUGEM Y30 SWAMP SWAMPG
Aircraft MD11/M-V/N

Departure

Time 2026-05-06 12:17
Airport New Chitose Airport (RJCC)

Arrival

Time N/A
Airport Narita International Airport (RJAA)
Time Latitude Longitude Altitude Speed Heading
2026-05-06 12:05 42.79004 141.67752 84 ft 0 kts 84°
2026-05-06 12:07 42.79004 141.67763 84 ft 3 kts 85°
2026-05-06 12:07 42.79005 141.67772 84 ft 5 kts 85°
2026-05-06 12:08 42.79008 141.67820 84 ft 10 kts 85°
2026-05-06 12:08 42.79009 141.67837 84 ft 11 kts 85°
2026-05-06 12:08 42.79014 141.67938 84 ft 16 kts 85°
2026-05-06 12:08 42.79013 141.68108 84 ft 20 kts 109°
2026-05-06 12:09 42.78940 141.68283 84 ft 22 kts 126°
2026-05-06 12:09 42.78820 141.68399 84 ft 22 kts 159°
2026-05-06 12:09 42.78671 141.68432 84 ft 22 kts 172°
2026-05-06 12:09 42.78528 141.68458 84 ft 6 kts 173°
2026-05-06 12:10 42.78523 141.68459 84 ft 2 kts 173°
2026-05-06 12:10 42.78518 141.68460 84 ft 3 kts 173°
2026-05-06 12:11 42.78510 141.68462 84 ft 5 kts 173°
2026-05-06 12:11 42.78480 141.68467 84 ft 3 kts 173°
2026-05-06 12:11 42.78445 141.68473 84 ft 4 kts 173°
2026-05-06 12:11 42.78431 141.68475 84 ft 0 kts 173°
2026-05-06 12:12 42.78416 141.68479 84 ft 6 kts 169°
2026-05-06 12:12 42.78376 141.68538 84 ft 13 kts 83°
2026-05-06 12:12 42.78381 141.68673 84 ft 13 kts 126°
2026-05-06 12:12 42.78268 141.68703 84 ft 22 kts 176°
2026-05-06 12:13 42.78084 141.68733 84 ft 31 kts 173°
2026-05-06 12:13 42.77844 141.68774 84 ft 38 kts 173°
2026-05-06 12:13 42.77561 141.68821 84 ft 44 kts 173°
2026-05-06 12:13 42.77256 141.68877 84 ft 40 kts 173°
2026-05-06 12:14 42.76988 141.68924 84 ft 37 kts 173°
2026-05-06 12:14 42.76737 141.68967 84 ft 35 kts 173°
2026-05-06 12:14 42.76503 141.69008 84 ft 33 kts 173°
2026-05-06 12:14 42.76306 141.69042 84 ft 26 kts 173°
2026-05-06 12:15 42.76174 141.69081 83 ft 10 kts 127°
2026-05-06 12:15 42.76168 141.69167 84 ft 9 kts 90°
2026-05-06 12:15 42.76171 141.69248 84 ft 9 kts 85°
2026-05-06 12:15 42.76176 141.69328 84 ft 8 kts 85°
2026-05-06 12:16 42.76182 141.69406 84 ft 8 kts 84°
2026-05-06 12:16 42.76192 141.69478 84 ft 8 kts 78°
2026-05-06 12:16 42.76214 141.69591 84 ft 15 kts 59°
2026-05-06 12:16 42.76306 141.69625 84 ft 16 kts 355°
2026-05-06 12:17 42.76663 141.69573 84 ft 92 kts 354°
2026-05-06 12:17 42.77602 141.69422 299 ft 164 kts 353°
2026-05-06 12:17 42.78739 141.69219 1640 ft 164 kts 352°
2026-05-06 12:17 42.79867 141.68844 3051 ft 168 kts 342°
2026-05-06 12:18 42.80900 141.68093 4359 ft 167 kts 327°
2026-05-06 12:18 42.81724 141.67027 5709 ft 161 kts 311°
2026-05-06 12:18 42.82300 141.65723 6895 ft 161 kts 294°
2026-05-06 12:18 42.82598 141.64262 7934 ft 164 kts 279°
2026-05-06 12:19 42.82596 141.62690 8937 ft 168 kts 265°
2026-05-06 12:19 42.82285 141.61146 9834 ft 178 kts 252°
2026-05-06 12:19 42.81640 141.59555 10455 ft 207 kts 238°
2026-05-06 12:19 42.80452 141.58223 11149 ft 240 kts 211°
2026-05-06 12:20 42.78711 141.57765 11973 ft 274 kts 184°
2026-05-06 12:20 42.76760 141.58425 12791 ft 308 kts 160°
2026-05-06 12:20 42.74949 141.60232 13560 ft 342 kts 137°
2026-05-06 12:20 42.73644 141.63038 14613 ft 359 kts 114°
2026-05-06 12:21 42.73143 141.66317 15919 ft 365 kts 93°
2026-05-06 12:21 42.73481 141.69812 17115 ft 371 kts 72°
2026-05-06 12:21 42.74650 141.72956 18210 ft 374 kts 52°
2026-05-06 12:21 42.76503 141.75434 19256 ft 375 kts 33°
2026-05-06 12:22 42.78800 141.76978 20233 ft 374 kts 14°
2026-05-06 12:22 42.81350 141.77475 21182 ft 371 kts 356°
2026-05-06 12:22 42.83938 141.77228 22129 ft 374 kts 350°
2026-05-06 12:22 42.86445 141.76345 22948 ft 373 kts 334°
2026-05-06 12:23 42.88629 141.74461 23757 ft 372 kts 316°
2026-05-06 12:23 42.90277 141.71768 24520 ft 372 kts 299°
2026-05-06 12:23 42.91241 141.68505 25240 ft 373 kts 283°
2026-05-06 12:23 42.91427 141.64969 25927 ft 377 kts 266°
2026-05-06 12:24 42.90811 141.61484 26637 ft 381 kts 249°
2026-05-06 12:24 42.89460 141.58381 27459 ft 382 kts 233°
2026-05-06 12:24 42.87503 141.55919 28230 ft 386 kts 218°
2026-05-06 12:24 42.85093 141.54294 28938 ft 391 kts 202°
2026-05-06 12:25 42.82402 141.53643 29605 ft 397 kts 186°
2026-05-06 12:25 42.79644 141.54035 30232 ft 403 kts 169°
2026-05-06 12:25 42.77029 141.55458 30821 ft 408 kts 153°
2026-05-06 12:25 42.74768 141.57812 31374 ft 413 kts 137°
2026-05-06 12:26 42.73031 141.60938 31897 ft 416 kts 121°
2026-05-06 12:26 42.71963 141.64584 32386 ft 418 kts 105°
2026-05-06 12:26 42.71641 141.68504 32849 ft 418 kts 88°
2026-05-06 12:26 42.72079 141.72333 33277 ft 416 kts 72°
2026-05-06 12:27 42.73276 141.75934 33690 ft 412 kts 55°
2026-05-06 12:27 42.75099 141.78835 34066 ft 406 kts 38°
2026-05-06 12:27 42.77440 141.80907 34427 ft 399 kts 21°
2026-05-06 12:27 42.80072 141.81950 34766 ft 392 kts
2026-05-06 12:28 42.82772 141.81976 35017 ft 389 kts 352°
2026-05-06 12:28 42.85438 141.81399 35003 ft 384 kts 340°
2026-05-06 12:28 42.87812 141.79891 34999 ft 373 kts 322°
2026-05-06 12:28 42.89685 141.77515 34999 ft 367 kts 305°
2026-05-06 12:29 42.90897 141.74486 34999 ft 365 kts 288°
2026-05-06 12:29 42.91339 141.71096 34999 ft 364 kts 270°
2026-05-06 12:29 42.90966 141.67704 34998 ft 364 kts 253°
2026-05-06 12:29 42.89810 141.64631 34998 ft 368 kts 235°
2026-05-06 12:30 42.87980 141.62183 34998 ft 373 kts 218°
2026-05-06 12:30 42.85636 141.60602 34998 ft 380 kts 200°
2026-05-06 12:30 42.83006 141.60065 34997 ft 387 kts 183°
2026-05-06 12:30 42.80330 141.60636 34997 ft 395 kts 166°
2026-05-06 12:31 42.77850 141.62281 34997 ft 402 kts 148°
2026-05-06 12:31 42.75792 141.64876 34997 ft 407 kts 131°
2026-05-06 12:31 42.74350 141.68198 34997 ft 411 kts 113°
2026-05-06 12:31 42.73654 141.71965 34997 ft 413 kts 96°
2026-05-06 12:32 42.73770 141.75857 34997 ft 413 kts 78°
2026-05-06 12:32 42.74685 141.79530 34997 ft 410 kts 61°
2026-05-06 12:32 42.76319 141.82675 34997 ft 406 kts 43°
2026-05-06 12:32 42.78521 141.85022 34997 ft 400 kts 26°
2026-05-06 12:33 42.81084 141.86373 34997 ft 393 kts
2026-05-06 12:33 42.83775 141.86649 35002 ft 386 kts 354°
2026-05-06 12:33 42.88905 141.85053 34993 ft 374 kts 327°
2026-05-06 12:34 42.90926 141.82895 34994 ft 369 kts 310°
2026-05-06 12:34 42.92327 141.80036 34994 ft 366 kts 292°
2026-05-06 12:34 42.92993 141.76711 34994 ft 363 kts 275°
2026-05-06 12:34 42.92844 141.73277 34995 ft 364 kts 258°
2026-05-06 12:35 42.91895 141.70079 34995 ft 367 kts 240°
2026-05-06 12:35 42.90242 141.67439 34995 ft 372 kts 223°
2026-05-06 12:35 42.88024 141.65597 34995 ft 378 kts 205°
2026-05-06 12:35 42.85453 141.64758 34996 ft 385 kts 188°
2026-05-06 12:36 42.82757 141.65020 34996 ft 393 kts 170°
2026-05-06 12:36 42.80212 141.66368 34996 ft 400 kts 153°
2026-05-06 12:36 42.77991 141.68620 35360 ft 389 kts 145°
2026-05-06 12:36 42.75713 141.70301 36234 ft 360 kts 168°
2026-05-06 12:37 42.73235 141.70730 35868 ft 369 kts 190°
2026-05-06 12:37 42.70754 141.69739 35336 ft 375 kts 207°
2026-05-06 12:37 42.68433 141.68164 35164 ft 377 kts 214°
2026-05-06 12:37 42.66329 141.66081 35006 ft 368 kts 224°
2026-05-06 12:38 42.63169 141.60695 35121 ft 367 kts 242°
2026-05-06 12:38 42.61271 141.54291 35251 ft 365 kts 258°
2026-05-06 12:39 42.60921 141.50885 35104 ft 363 kts 266°
2026-05-06 12:39 42.60691 141.47487 35004 ft 358 kts 264°
2026-05-06 12:39 42.60381 141.44193 34878 ft 354 kts 262°
2026-05-06 12:39 42.60009 141.40914 34725 ft 350 kts 261°
2026-05-06 12:40 42.59596 141.37666 34549 ft 346 kts 260°
2026-05-06 12:40 42.59160 141.34474 34357 ft 344 kts 260°
2026-05-06 12:40 42.58704 141.31285 34150 ft 341 kts 258°
2026-05-06 12:40 42.57927 141.28262 34165 ft 342 kts 242°
2026-05-06 12:41 42.56441 141.25716 34370 ft 348 kts 227°
2026-05-06 12:41 42.54648 141.23521 34564 ft 354 kts 224°
2026-05-06 12:41 42.52793 141.21295 34753 ft 358 kts 226°
2026-05-06 12:41 42.50977 141.18892 34934 ft 362 kts 228°
2026-05-06 12:42 42.47470 141.13811 34973 ft 382 kts 230°
2026-05-06 12:42 42.43854 141.08279 34982 ft 402 kts 231°
2026-05-06 12:43 42.41988 141.05386 34987 ft 413 kts 231°
2026-05-06 12:43 42.40083 141.02423 34990 ft 423 kts 231°
2026-05-06 12:43 42.36174 140.96326 34994 ft 429 kts 231°
2026-05-06 12:44 42.32286 140.90254 34994 ft 426 kts 231°
2026-05-06 12:44 42.28422 140.84165 34995 ft 427 kts 231°
2026-05-06 12:45 42.24543 140.78071 34995 ft 427 kts 231°
2026-05-06 12:46 42.18737 140.68923 34996 ft 427 kts 231°
2026-05-06 12:46 42.15545 140.63841 34996 ft 427 kts 232°
2026-05-06 12:47 42.11716 140.57720 34996 ft 427 kts 231°
2026-05-06 12:47 42.09555 140.54965 34991 ft 431 kts 219°
2026-05-06 12:47 42.06938 140.52958 34997 ft 436 kts 207°
2026-05-06 12:48 42.01244 140.50067 34998 ft 438 kts 201°
2026-05-06 12:48 41.95400 140.47738 34997 ft 439 kts 199°
2026-05-06 12:49 41.89529 140.45482 34997 ft 439 kts 199°
2026-05-06 12:49 41.83696 140.43235 34997 ft 439 kts 199°
2026-05-06 12:50 41.77820 140.40953 34997 ft 439 kts 199°
2026-05-06 12:50 41.71966 140.38646 34997 ft 438 kts 199°
2026-05-06 12:51 41.66126 140.36286 34997 ft 438 kts 200°
2026-05-06 12:51 41.60184 140.34399 34992 ft 443 kts 188°
2026-05-06 12:52 41.53970 140.34786 34998 ft 448 kts 178°
2026-05-06 12:52 41.47761 140.35468 34997 ft 447 kts 178°
2026-05-06 12:53 41.41553 140.36126 34997 ft 447 kts 179°
2026-05-06 12:53 41.35346 140.36773 34997 ft 447 kts 179°
2026-05-06 12:54 41.29136 140.37415 34997 ft 447 kts 179°
2026-05-06 12:54 41.22965 140.38052 34997 ft 447 kts 179°
2026-05-06 12:55 41.16712 140.38695 34997 ft 447 kts 179°
2026-05-06 12:55 41.10507 140.39327 34997 ft 447 kts 179°
2026-05-06 12:56 41.04295 140.39956 34997 ft 447 kts 179°
2026-05-06 12:56 40.98087 140.40581 34997 ft 447 kts 179°
2026-05-06 12:57 40.91920 140.41195 34997 ft 447 kts 179°
2026-05-06 12:57 40.85703 140.41812 34997 ft 447 kts 179°
2026-05-06 12:58 40.79496 140.42417 34997 ft 447 kts 179°
2026-05-06 12:58 40.73284 140.43011 34997 ft 447 kts 179°
2026-05-06 12:59 40.67073 140.43589 34997 ft 447 kts 179°
2026-05-06 12:59 40.60859 140.44146 34997 ft 447 kts 179°
2026-05-06 13:00 40.54646 140.44667 34997 ft 447 kts 180°
2026-05-06 13:00 40.49983 140.45022 34997 ft 447 kts 180°
2026-05-06 13:01 40.43813 140.45612 34997 ft 448 kts 177°
2026-05-06 13:01 40.37671 140.47227 34997 ft 452 kts 169°
2026-05-06 13:02 40.31553 140.49087 34997 ft 451 kts 170°
2026-05-06 13:02 40.25408 140.50863 34997 ft 451 kts 171°
2026-05-06 13:03 40.19270 140.52602 34997 ft 451 kts 171°
2026-05-06 13:03 40.13135 140.54310 34997 ft 451 kts 171°
2026-05-06 13:04 40.07035 140.55966 34997 ft 451 kts 172°
2026-05-06 13:04 40.00892 140.57614 34997 ft 451 kts 170°
2026-05-06 13:05 39.94793 140.59637 34997 ft 452 kts 168°
2026-05-06 13:05 39.88697 140.61650 34997 ft 451 kts 170°
2026-05-06 13:06 39.82927 140.63333 34997 ft 451 kts 171°
2026-05-06 13:06 39.77858 140.64764 34997 ft 451 kts 171°
2026-05-06 13:07 39.71720 140.66470 34997 ft 451 kts 171°
2026-05-06 13:07 39.65580 140.68144 34997 ft 451 kts 171°
2026-05-06 13:08 39.59434 140.69771 34997 ft 450 kts 172°
2026-05-06 13:08 39.53301 140.71495 34997 ft 452 kts 169°
2026-05-06 13:09 39.47222 140.73604 34997 ft 452 kts 168°
2026-05-06 13:09 39.41148 140.75542 34997 ft 451 kts 170°
2026-05-06 13:10 39.35023 140.77317 34997 ft 451 kts 171°
2026-05-06 13:10 39.28890 140.79057 34997 ft 451 kts 171°
2026-05-06 13:11 39.22756 140.80783 34997 ft 451 kts 171°
2026-05-06 13:11 39.17959 140.82126 34997 ft 451 kts 171°
2026-05-06 13:12 39.12429 140.83674 34997 ft 451 kts 171°
2026-05-06 13:13 39.10427 140.84231 34997 ft 451 kts 171°